Location: Peebles
(55.6412°N, 3.1714°W)
Time: 14:58:40
(UTC+01:00)

ZHUHAI-1 OVS-02 - Pass Details

Date: 28 June 2022
Orbit: 492 x 507 km, 97.2° (Epoch: 17 August)

Event Time Altitude Azimuth Distance (km) Brightness Sun altitude
Rises 23:29:19 0° 221° (SW) 2,571 ? -7.9°
Reaches altitude 10° 23:33:00 10° 261° (W) 1,701 ? -8.1°
Maximum altitude 23:33:54 11° 275° (W) 1,658 ? -8.2°
Drops below altitude 10° 23:34:48 10° 290° (WNW) 1,707 ? -8.2°
Sets 23:38:33 0° 329° (NNW) 2,604 ? -8.4°
